Regional Weather Roundup
Issued by NWS

Home | Current Version | Previous Version | Text Only | Print | Product List | Glossary On
Versions: 1 2 3 4 5 6 7 8 9 10 11 12 13 14 15 16 17 18 19 20 21 22 23 24 25 26 27 28 29 30 31 32 33 34 35 36 37 38 39 40 41 42 43 44 45 46 47 48 49 50
000
ASUS46 KSTO 251615
RWRCA

NORTHERN AND CENTRAL CA REGIONAL WEATHER ROUNDUP
NATIONAL WEATHER SERVICE SACRAMENTO CA
900 AM PDT MON JUL 25 2016

NOTE: FAIR INDICATES FEW OR NO CLOUDS BELOW 12,000 FEET WITH NO
SIGNIFICANT WEATHER AND/OR OBSTRUCTIONS TO VISIBILITY.

CAZ001-003-251700-
NORTHWEST AREA

CITY           SKY/WX    TMP DP  RH WIND       PRES   REMARKS
CRESCENT CITY  CLOUDY    58  55  90 CALM      30.04R
UKIAH          SUNNY     69  53  56 CALM      29.93S
$$

CAZ006-505>513-251700-
BAY AREA

CITY           SKY/WX    TMP DP  RH WIND       PRES   REMARKS
SANTA ROSA     CLOUDY    57  53  86 S7        29.94R
SAN RAFAEL     N/A       55  MM  MM MISG
NAPA           CLOUDY    57  53  86 S6        29.95S
CONCORD        SUNNY     66  53  63 NW9       29.92S
OAKLAND CITY   N/A       59  MM  MM MISG
OAKLAND        CLOUDY    61  56  83 CALM      29.96S
SAN FRAN CITY  N/A       56  MM  93 MISG
SAN FRAN ARPT  MOSUNNY   62  52  69 VRB3      29.95S
LIVERMORE      SUNNY     64  53  67 CALM      29.93S
HAYWARD        MOSUNNY   64  53  67 CALM      29.95S
REDWOOD CITY   N/A       63  MM  77 MISG
MOFFETT ARPT   SUNNY     65  55  70 VRB3      29.95S
SAN JOSE ARPT  MOSUNNY   63  52  67 E6        29.95S
$$
CAZ034-037-514>518-251700-
CENTRAL COAST

CITY           SKY/WX    TMP DP  RH WIND       PRES   REMARKS
WATSONVILLE    CLOUDY    54  51  90 NE5       30.00R
SALINAS        CLOUDY    55  51  86 CALM      29.99S FOG
MONTEREY       CLOUDY    53  52  96 CALM      30.00R FOG
SAN LUIS OBISP SUNNY     58  52  80 CALM      29.98S
SANTA MARIA    CLOUDY    53  53 100 W3        29.99R FOG
$$
CAZ015-016-251700-
NORTHERN SACRAMENTO VALLEY

CITY           SKY/WX    TMP DP  RH WIND       PRES   REMARKS
REDDING        SUNNY     83  52  34 N5        29.91S
RED BLUFF      SUNNY     83  52  34 CALM      29.92R
OROVILLE       SUNNY     78  51  38 CALM      29.92R
$$
CAZ016>018-251700-
SOUTHERN SACRAMENTO VALLEY

CITY           SKY/WX    TMP DP  RH WIND       PRES   REMARKS
AUBURN         SUNNY     82  41  23 E8        29.97S
BEALE AFB      SUNNY     76  50  39 W2        29.89R
LINCOLN        FAIR      75  46  35 CALM      29.89F
MARYSVILLE     SUNNY     76  54  46 CALM      29.90R
SAC INTL ARPT  MOSUNNY   68  53  58 SE6       29.89R
MATHER AIRPORT SUNNY     70  50  49 S6        29.91R
DOWNTOWN SAC   N/A       71  MM  MM MISG
SAC EXEC ARPT  SUNNY     67  54  63 SW6       29.91R
VACAVILLE      SUNNY     73  52  47 CALM      29.91R
TRAVIS AFB     SUNNY     65  53  64 SW14      29.89R
$$
CAZ019>021-251700-
SAN JOAQUIN VALLEY

CITY           SKY/WX    TMP DP  RH WIND       PRES   REMARKS
STOCKTON       SUNNY     73  54  51 NW5       29.91R
MODESTO        SUNNY     77  52  41 NW7       29.90R
MERCED         SUNNY     78  53  41 N7G29     29.89R
LEMOORE        PTSUNNY   82  47  29 NW5       29.90R
FRESNO         SUNNY     79  52  38 E7        29.90S
HANFORD        SUNNY     82  49  31 CALM      29.91R
PORTERVILLE    SUNNY     84  48  28 S3        29.92R
BAKERSFIELD    SUNNY     86  39  19 CALM      29.91R
$$
CAZ011-012-071-251700-
NORTHERN MOUNTAINS

CITY           SKY/WX    TMP DP  RH WIND       PRES   REMARKS
YREKA          SUNNY     75  48  38 CALM      30.07S
MOUNT SHASTA   SUNNY     76  54  46 CALM      30.09S
ALTURAS        SUNNY     72  37  28 CALM      30.15F
$$
CAZ011-012-071-251700-
SIERRA NEVADA MTNS

CITY           SKY/WX    TMP DP  RH WIND       PRES   REMARKS
TAHOE VLY ARPT SUNNY     60  34  37 CALM      30.29S
MAMMOTH LAKES  FAIR      73  22  14 CALM      30.33S
$$




USA.gov is the U.S. government's official web portal to all federal, state and local government web resources and services.